User: anonymous   Login
Location: Unspecified
(0.0000°N, 0.0000°E)
Time: 15:03:51
(UTC+00:00)
Language:

WGS 9 (USA 275) - Orbit

View from above orbital plane
View from above orbital plane
View from above satellite
View from above satellite

Ground track
Ground track

The orbit data is extracted from the following two-line orbital elements,

1 42075U 17016A   18094.91078595 0.00000000  00000-0  00000-0 0    02
2 42075   0.0262 310.7526 0002001  30.6386 329.3976  1.00270000    02
Epoch (UTC): 04 April 2018 21:51:31
Eccentricity: 0.0002001
inclination: 0.0262°
perigee height: 35778 km
apogee height: 35795 km
right ascension of ascending node: 310.7526°
argument of perigee: 30.6386°
revolutions per day: 1.00270000
mean anomaly at epoch: 329.3976°
orbit number at epoch: 0

The dashed part of the orbit path shows where the satellite is in the earth's shadow,  

DLR